星链-4625 (STARLINK-4625 )

导读

STARLINK-4625是美国SpaceX公司星链计划中的一颗卫星,于2022年8月31日发射升空。星链项目旨在构建全球卫星互联网星座,该卫星承担着为全球偏远地区等提供低时延宽带互联网接入服务的任务,是SpaceX大规模星座组网建设进程中的一员,助力完善全球卫星通信网络覆盖。

Basic Information
目录编号:
53683
目录名称:
STARLINK-4625
国际标识:
2022-105AM
轨道中心:
EARTH
卫星名称:
星链-4625
卫星全名:
星链-4625 (STARLINK-4625 )
卫星状态:
在轨 (已飞行1382 天)
发射日期:
2022-08-31 UTC
国别 :
美国 (US)
星等 :
--
Orbit Information
数据来源 国际轨道数据 AOE轨道数据
星历时间 2026-06-13T23:36:51+0800
5小时前
查看轨道信息
2026-06-13T00:00:00+0800
1天前
查看轨道信息
半长轴 6927.732km 6927.633km
偏心率 0.0002794 0.0003293
轨道倾角 97.365° 97.370°
近地点辐角 85.882° 68.719°
升交点赤经 43.863° 42.927°
平近点角 274.272° 1.641°
近地点 547.659km 547.214km
远地点 551.531km 551.778km
周期 95.641分钟 95.639分钟
每日圈数 15.056228 15.05655
Detailed Information
固有亮度:
5
最大亮度:
2.5
卫星平台:
Starlink v1.5
覆盖范围:
全球
运营商:
太空探索技术公司
运营商所在国:
美国
制造商(研发单位):
太空探索技术公司
制造商所在国:
美国
使用方式:
暂无
Satellite Introduction
星链(Starlink)计划是由太空探索技术公司(SpaceX)提出的一个巨型低轨卫星互联网星座项目,计划在2019年至2024年间在太空搭建由约1.2万颗卫星组成的“星链”网络,其中1584颗将部署在地球上空550千米处的近地轨道,并从2020年开始工作。该卫星仍在工作。
2D Orbit Map
3D Orbit Map
Orbit Altitude Analysis Chart
Orbit Inclination Analysis Chart
Orbit Comprehensive Analysis Chart
View Comprehensive Chart